CW6099 Weather Reports


time (UTC)temp
C
wind
direction
speed
KPH
gust
KPH
rain 1hr
cm
rain 24hr
cm
rain mn
cm
humidity
%
barometer
mb
20260507144415 11 235 19.3 30.6 0.03 1.02 0.03 77 1014.8
20260507144348 11 255 22.5 30.6 0.03 1.02 0.03 77 1014.8
20260507143419 10 248 19.3 35.4 0.03 1.02 0.03 79 1014.8
20260507143312 10 236 20.9 35.4 0.03 1.02 0.03 79 1014.8
20260507142423 10 244 24.1 32.2 0.03 1.02 0.03 80 1014.8
20260507142317 10 217 25.7 32.2 0.03 1.02 0.03 80 1014.8
20260507141428 9 244 25.7 33.8 0.03 1.02 0.03 82 1014.8
20260507141320 9 240 25.7 33.8 0.03 1.02 0.03 82 1014.7
20260507140415 8 211 20.9 30.6 0.00 0.99 0.00 83 1014.8
20260507140349 8 271 19.3 30.6 0.00 0.99 0.00 84 1014.8
20260507135417 8 226 19.3 32.2 0.00 0.99 0.00 84 1014.7
20260507135328 8 271 20.9 32.2 0.00 0.99 0.00 84 1014.7
20260507134418 7 249 22.5 35.4 0.00 0.99 0.00 85 1014.9
20260507134311 7 232 24.1 35.4 0.00 0.99 0.00 85 1014.9
20260507133423 6 240 27.4 35.4 0.00 0.99 0.00 87 1014.8
20260507133316 6 246 25.7 33.8 0.00 0.99 0.00 87 1014.8
20260507132427 5 243 22.5 32.2 0.00 0.99 0.00 89 1014.8
20260507132323 5 227 22.5 32.2 0.00 0.99 0.00 89 1014.7
20260507131414 5 237 22.5 33.8 0.00 0.99 0.00 89 1014.7
20260507131327 5 235 24.1 33.8 0.00 0.99 0.00 89 1014.7
20260507130438 4 257 19.3 29.0 0.00 0.99 0.00 91 1014.7
20260507130329 4 226 19.3 29.0 0.00 0.99 0.00 91 1014.7
20260507125419 3 257 22.5 30.6 0.00 0.99 0.00 92 1014.6
20260507125310 3 262 22.5 30.6 0.00 0.99 0.00 92 1014.6
20260507124419 3 240 19.3 25.7 0.00 0.99 0.00 93 1014.7
20260507124312 3 224 19.3 27.4 0.00 0.99 0.00 93 1014.7
20260507123423 2 261 17.7 29.0 0.00 0.99 0.00 94 1014.7
20260507123320 2 256 19.3 29.0 0.00 0.99 0.00 94 1014.7
20260507122410 2 261 19.3 27.4 0.00 0.99 0.00 94 1014.7
20260507122343 2 265 19.3 25.7 0.00 0.99 0.00 94 1014.6
20260507121433 2 234 19.3 27.4 0.00 0.99 0.00 95 1014.7
20260507121324 2 221 19.3 27.4 0.00 0.99 0.00 95 1014.7
20260507120416 1 247 17.7 25.7 0.00 0.99 0.00 95 1014.8
20260507120328 1 234 19.3 25.7 0.00 0.99 0.00 95 1014.8
20260507115418 1 250 16.1 25.7 0.00 0.99 0.00 95 1014.8
20260507115309 1 260 16.1 25.7 0.00 0.99 0.00 96 1014.8
20260507114439 1 252 17.7 25.7 0.00 0.99 0.00 96 1014.8
20260507114313 1 221 17.7 25.7 0.00 0.99 0.00 96 1014.8
20260507113425 1 234 17.7 24.1 0.00 0.99 0.00 95 1014.9
20260507113319 1 236 17.7 24.1 0.00 0.99 0.00 95 1014.9
20260507112409 1 254 17.7 27.4 0.00 0.99 0.00 95 1015.1
20260507112322 1 250 19.3 27.4 0.00 0.99 0.00 95 1015.1
20260507111413 1 224 19.3 25.7 0.00 0.99 0.00 95 1015.1
20260507111326 1 237 17.7 25.7 0.00 0.99 0.00 95 1015.1
20260507110418 1 233 19.3 29.0 0.00 0.99 0.00 95 1015.2
20260507110314 1 245 20.9 29.0 0.00 0.99 0.00 95 1015.3
20260507105425 1 222 19.3 24.1 0.00 1.02 0.00 95 1015.2
20260507105338 1 246 17.7 29.0 0.00 1.02 0.00 95 1015.2
20260507104427 1 236 22.5 30.6 0.00 1.02 0.00 96 1015.5
20260507104319 1 236 20.9 30.6 0.00 1.02 0.00 96 1015.5
20260507103412 1 236 20.9 27.4 0.00 1.02 0.00 96 1015.5
20260507103324 1 236 20.9 27.4 0.00 1.02 0.00 96 1015.5
20260507102413 1 235 19.3 24.1 0.00 1.02 0.00 96 1015.6
20260507102324 1 232 19.3 24.1 0.00 1.02 0.00 96 1015.6
20260507101436 1 237 19.3 24.1 0.00 1.02 0.00 96 1015.6
20260507101312 1 225 19.3 24.1 0.00 1.02 0.00 96 1015.7
20260507100423 1 234 17.7 29.0 0.00 1.02 0.00 97 1015.8
20260507100336 1 232 20.9 29.0 0.00 1.02 0.00 97 1015.8
20260507095423 1 225 20.9 25.7 0.00 1.17 0.00 97 1015.8
20260507095315 1 246 17.7 22.5 0.00 1.17 0.00 97 1015.9
20260507094447 1 232 14.5 22.5 0.00 1.17 0.00 97 1016.1
20260507094319 1 240 14.5 22.5 0.00 1.17 0.00 97 1016.1
20260507093411 1 250 16.1 24.1 0.00 1.17 0.00 97 1016.1
20260507093324 1 232 16.1 24.1 0.00 1.17 0.00 97 1016.1
20260507092416 1 237 17.7 25.7 0.00 1.17 0.00 98 1016.1
20260507092313 1 255 19.3 25.7 0.00 1.17 0.00 98 1016.1
20260507091424 1 244 17.7 25.7 0.00 1.17 0.00 97 1016.3
20260507091315 1 244 17.7 25.7 0.00 1.17 0.00 97 1016.3
20260507090427 1 229 19.3 29.0 0.00 1.17 0.00 97 1016.4
20260507090339 1 232 19.3 30.6 0.00 1.17 0.00 97 1016.5
20260507085411 1 236 22.5 29.0 0.00 1.27 0.00 97 1016.7
20260507085322 1 230 22.5 29.0 0.00 1.27 0.00 97 1016.6
20260507084415 1 229 24.1 30.6 0.00 1.27 0.00 97 1016.7
20260507084325 1 239 24.1 29.0 0.00 1.27 0.00 97 1016.7
20260507083416 1 230 22.5 29.0 0.00 1.27 0.00 97 1016.7
20260507083313 1 226 24.1 29.0 0.00 1.27 0.00 97 1016.7
20260507082444 1 228 20.9 27.4 0.00 1.27 0.00 97 1016.7
20260507082318 1 228 20.9 27.4 0.00 1.27 0.00 97 1016.8
20260507081409 1 217 19.3 27.4 0.00 1.27 0.00 97 1016.8
20260507081322 1 235 19.3 29.0 0.00 1.27 0.00 97 1016.9
20260507080414 1 229 20.9 30.6 0.00 1.27 0.00 97 1017.1
20260507080347 1 234 22.5 30.6 0.00 1.27 0.00 97 1017.1
20260507075417 1 223 20.9 30.6 0.00 1.32 0.00 98 1017.3
20260507075309 1 231 22.5 30.6 0.00 1.32 0.00 98 1017.3
20260507074420 1 229 24.1 29.0 0.00 1.32 0.00 98 1017.3
20260507074318 1 229 22.5 29.0 0.00 1.32 0.00 98 1017.3
20260507073428 1 234 20.9 25.7 0.00 1.32 0.00 98 1017.4
20260507073322 1 229 20.9 25.7 0.00 1.32 0.00 98 1017.5
20260507072433 1 235 20.9 25.7 0.00 1.32 0.00 97 1017.7
20260507072345 1 243 20.9 25.7 0.00 1.32 0.00 97 1017.7
20260507071416 1 229 19.3 22.5 0.00 1.32 0.00 97 1017.9
20260507071349 1 227 19.3 22.5 0.00 1.32 0.00 97 1017.9
20260507070418 1 233 17.7 25.7 0.00 1.32 0.00 97 1018.0
20260507070311 1 219 17.7 25.7 0.00 1.32 0.00 97 1018.0
20260507065423 1 242 17.7 24.1 0.00 1.40 0.00 97 1018.1
20260507065316 1 230 19.3 24.1 0.00 1.40 0.00 97 1018.1
20260507064428 1 221 17.7 25.7 0.00 1.40 0.00 97 1018.1
20260507064319 1 227 17.7 25.7 0.00 1.40 0.00 97 1018.1
20260507063431 1 242 19.3 27.4 0.00 1.40 0.00 97 1018.3
20260507063323 1 241 20.9 27.4 0.00 1.40 0.00 97 1018.3
20260507062413 1 243 19.3 24.1 0.00 1.40 0.00 97 1018.4
20260507062326 1 230 20.9 24.1 0.00 1.40 0.00 97 1018.4
20260507061417 1 231 16.1 22.5 0.00 1.40 0.00 97 1018.6
20260507061310 1 234 16.1 22.5 0.00 1.40 0.00 97 1018.6
20260507060422 2 226 19.3 29.0 0.00 1.40 0.00 97 1018.5
20260507060318 2 223 19.3 29.0 0.00 1.40 0.00 97 1018.5
20260507055410 2 234 16.1 22.5 0.00 1.42 1.40 97 1018.6
20260507055322 2 214 17.7 22.5 0.00 1.42 1.40 97 1018.5
20260507054415 2 222 16.1 24.1 0.00 1.42 1.40 97 1018.5
20260507054328 2 218 16.1 24.1 0.00 1.42 1.40 97 1018.6
20260507053438 2 218 16.1 20.9 0.00 1.42 1.40 97 1018.6
20260507053311 2 211 16.1 20.9 0.00 1.42 1.40 97 1018.6
20260507052443 2 211 16.1 20.9 0.00 1.42 1.40 97 1018.8
20260507052318 2 228 14.5 17.7 0.00 1.42 1.40 97 1018.8
20260507051410 2 230 14.5 24.1 0.00 1.42 1.40 97 1018.9
20260507051323 2 219 14.5 24.1 0.00 1.42 1.40 97 1018.8
20260507050435 2 242 16.1 24.1 0.00 1.42 1.40 97 1018.8
20260507050325 2 222 16.1 24.1 0.00 1.42 1.40 97 1018.8
20260507045414 2 221 14.5 22.5 0.00 1.60 1.40 97 1019.0
20260507045347 2 187 14.5 22.5 0.00 1.60 1.40 97 1019.0
20260507044418 2 222 14.5 22.5 0.00 1.60 1.40 97 1019.1
20260507044311 2 242 14.5 22.5 0.00 1.60 1.40 97 1019.1
20260507043422 2 229 14.5 19.3 0.00 1.60 1.40 97 1019.0
20260507043320 2 224 14.5 19.3 0.00 1.60 1.40 97 1019.0
20260507042449 2 212 12.9 17.7 0.00 1.60 1.40 97 1019.0
20260507042321 2 227 12.9 17.7 0.00 1.60 1.40 97 1019.0
20260507041413 2 221 12.9 19.3 0.00 1.60 1.40 97 1019.1
20260507041326 2 227 12.9 19.3 0.00 1.60 1.40 97 1019.1
20260507040417 2 220 12.9 17.7 0.00 1.60 1.40 96 1019.1
20260507040310 2 229 12.9 17.7 0.00 1.60 1.40 96 1019.2
20260507035423 2 227 14.5 19.3 0.00 1.78 1.40 96 1019.3
20260507035320 2 215 12.9 17.7 0.00 1.78 1.40 96 1019.2
20260507034430 2 226 14.5 19.3 0.00 1.78 1.40 96 1019.2
20260507034321 2 225 12.9 17.7 0.00 1.78 1.40 96 1019.2
20260507033412 2 232 12.9 17.7 0.00 1.78 1.40 96 1019.3
20260507033325 2 229 12.9 17.7 0.00 1.78 1.40 96 1019.1
20260507032415 2 221 12.9 16.1 0.00 1.78 1.40 96 1019.2
20260507032329 2 232 11.3 16.1 0.00 1.78 1.40 96 1019.2
20260507031439 2 225 12.9 16.1 0.00 1.78 1.40 96 1019.2
20260507031309 2 219 12.9 16.1 0.00 1.78 1.40 96 1019.1
20260507030420 2 214 11.3 14.5 0.00 1.78 1.40 96 1019.1
20260507030317 2 223 12.9 16.1 0.00 1.78 1.40 96 1019.2
20260507025410 2 216 9.7 14.5 0.00 1.93 1.40 96 1019.0
20260507025322 2 219 9.7 14.5 0.00 1.93 1.40 96 1019.0
20260507024414 2 230 11.3 14.5 0.00 1.93 1.40 95 1019.0
20260507024324 2 232 11.3 14.5 0.00 1.93 1.40 95 1019.0
20260507023434 2 234 11.3 14.5 0.00 1.93 1.40 94 1018.8
20260507023323 2 236 11.3 12.9 0.00 1.93 1.40 94 1018.8
20260507022411 3 233 11.3 14.5 0.00 1.93 1.40 94 1018.8
20260507022328 3 240 11.3 14.5 0.00 1.93 1.40 94 1018.8
20260507021419 3 240 8.0 12.9 0.00 1.93 1.40 93 1018.8
20260507021333 3 230 8.0 12.9 0.00 1.93 1.40 92 1018.8
20260507020421 3 252 8.0 11.3 0.00 1.93 1.40 92 1018.7
20260507020314 3 238 8.0 12.9 0.00 1.93 1.40 92 1018.7
20260507015426 4 247 8.0 16.1 0.00 1.96 1.40 92 1018.6
20260507015318 4 233 11.3 16.1 0.00 1.96 1.40 92 1018.5
20260507014428 5 224 12.9 16.1 0.00 1.96 1.40 92 1018.6
20260507014318 5 221 14.5 16.1 0.00 1.96 1.40 92 1018.6
20260507013448 5 228 11.3 17.7 0.00 1.96 1.40 92 1018.5
20260507013324 5 227 11.3 16.1 0.00 1.96 1.40 92 1018.5
20260507012414 5 230 14.5 17.7 0.00 1.96 1.40 91 1018.6
20260507012327 5 234 14.5 17.7 0.00 1.96 1.40 91 1018.6
20260507011438 5 235 12.9 19.3 0.00 1.96 1.40 90 1018.5
20260507011310 5 223 12.9 19.3 0.00 1.96 1.40 90 1018.6
20260507010442 6 215 16.1 24.1 0.00 1.96 1.40 89 1018.5
20260507010313 6 213 14.5 24.1 0.00 1.96 1.40 89 1018.5
20260507005425 6 242 17.7 24.1 0.00 1.96 1.40 88 1018.5
20260507005317 6 231 17.7 24.1 0.00 1.96 1.40 88 1018.6
20260507004414 6 234 16.1 24.1 0.00 1.96 1.40 89 1018.6
20260507004327 6 230 16.1 24.1 0.00 1.96 1.40 88 1018.5
20260507003418 6 236 19.3 24.1 0.00 1.96 1.40 88 1018.6
20260507003312 6 211 19.3 24.1 0.00 1.96 1.40 88 1018.6
20260507002442 6 215 16.1 22.5 0.00 1.96 1.40 88 1018.5
20260507002335 6 220 16.1 22.5 0.00 1.96 1.40 89 1018.5
20260507001444 6 228 16.1 19.3 0.00 1.96 1.40 92 1018.6
20260507001317 6 226 14.5 19.3 0.00 1.96 1.40 92 1018.6
20260507000450 6 223 11.3 17.7 0.00 1.96 1.40 91 1018.6
20260507000321 6 223 12.9 17.7 0.00 1.96 1.40 91 1018.6
20260506235430 6 207 11.3 17.7 0.00 1.96 1.40 92 1018.7
20260506235324 6 242 12.9 17.7 0.00 1.96 1.40 91 1018.7
20260506234416 6 215 12.9 19.3 0.00 1.96 1.40 92 1018.7
20260506234326 6 181 11.3 19.3 0.00 1.96 1.40 92 1018.8
20260506233414 6 208 12.9 19.3 0.03 1.96 1.40 91 1018.9
20260506233328 6 219 14.5 19.3 0.03 1.96 1.40 92 1018.9
20260506232419 6 204 14.5 20.9 0.03 1.96 1.40 91 1018.9
20260506232313 6 197 14.5 22.5 0.03 1.96 1.40 91 1018.9
20260506231424 6 221 12.9 22.5 0.05 1.96 1.40 92 1019.1
20260506231336 6 215 14.5 22.5 0.05 1.96 1.40 93 1019.0
20260506230410 6 206 12.9 16.1 0.08 1.96 1.40 93 1018.9
20260506230322 6 239 12.9 16.1 0.08 1.96 1.40 94 1018.9
20260506225433 6 215 9.7 14.5 0.10 1.96 1.40 94 1018.8
20260506225324 6 232 8.0 14.5 0.10 1.96 1.40 94 1018.8
20260506224415 5 240 11.3 16.1 0.18 1.96 1.40 93 1018.8
20260506224326 5 242 11.3 16.1 0.18 1.96 1.40 93 1018.9
20260506223416 5 219 6.4 12.9 0.18 1.93 1.37 94 1018.9
20260506223329 5 232 6.4 12.9 0.18 1.93 1.37 94 1018.9
20260506222421 5 233 9.7 12.9 0.18 1.93 1.37 94 1019.0
20260506222317 5 246 8.0 11.3 0.18 1.93 1.37 94 1019.0
20260506221445 5 234 8.0 16.1 0.15 1.91 1.35 94 1019.0
20260506221321 5 246 11.3 16.1 0.15 1.91 1.35 94 1019.0
20260506220412 5 252 9.7 14.5 0.13 1.88 1.32 94 1019.0
20260506220324 5 238 8.0 11.3 0.13 1.88 1.32 94 1019.0
20260506215415 5 230 4.8 19.3 0.13 2.06 1.30 92 1019.0
20260506215348 5 225 4.8 19.3 0.13 2.06 1.30 91 1019.0
20260506214419 5 267 11.3 16.1 0.05 1.98 1.22 91 1019.0
20260506214311 6 247 8.0 14.5 0.05 1.98 1.22 91 1019.1
20260506213444 6 229 8.0 11.3 0.03 1.96 1.19 91 1019.1
20260506213321 6 250 9.7 11.3 0.03 1.96 1.19 91 1019.1
20260506212413 6 223 6.4 12.9 0.03 1.96 1.19 90 1019.1
20260506212325 6 232 6.4 12.9 0.03 1.96 1.19 88 1019.0
20260506211415 6 203 6.4 14.5 0.03 1.96 1.19 89 1019.0
20260506211327 6 207 8.0 14.5 0.03 1.96 1.19 89 1019.0
20260506210418 6 197 3.2 12.9 0.03 1.96 1.19 89 1019.1
20260506210331 6 180 4.8 12.9 0.03 1.96 1.19 89 1019.1
20260506205421 6 213 9.7 12.9 0.00 1.98 1.17 90 1019.1
20260506205314 6 202 9.7 12.9 0.00 1.98 1.17 91 1019.1
20260506204426 6 195 8.0 11.3 0.00 1.98 1.17 91 1019.3
20260506204323 6 180 8.0 11.3 0.00 1.98 1.17 90 1019.3
20260506203415 6 246 6.4 9.7 0.00 1.98 1.17 90 1019.3
20260506203327 6 210 6.4 9.7 0.00 1.98 1.17 90 1019.3
20260506202437 6 218 8.0 12.9 0.00 1.98 1.17 90 1019.3
20260506202326 6 194 8.0 12.9 0.00 1.98 1.17 90 1019.3
20260506201436 6 212 6.4 11.3 0.00 1.98 1.17 91 1019.3
20260506201326 6 192 4.8 9.7 0.00 1.98 1.17 91 1019.3
20260506200416 6 198 4.8 9.7 0.00 1.98 1.17 90 1019.2
20260506200329 6 155 4.8 9.7 0.00 1.98 1.17 92 1019.2
20260506195422 6 155 8.0 14.5 0.00 2.03 1.17 92 1019.1
20260506195317 6 139 9.7 14.5 0.00 2.03 1.17 91 1019.1
20260506194429 5 167 4.8 11.3 0.00 2.03 1.17 91 1019.2
20260506194320 5 194 6.4 11.3 0.00 2.03 1.17 91 1019.2
20260506193411 5 180 6.4 11.3 0.00 2.03 1.17 91 1019.3
20260506193344 5 152 8.0 11.3 0.00 2.03 1.17 90 1019.3
20260506192413 5 186 4.8 11.3 0.00 2.03 1.17 90 1019.3
20260506192326 5 169 4.8 11.3 0.00 2.03 1.17 90 1019.3
20260506191418 5 150 9.7 11.3 0.03 2.03 1.17 93 1019.2
20260506191315 5 165 8.0 11.3 0.03 2.03 1.17 91 1019.1
20260506190427 5 144 4.8 9.7 0.03 2.03 1.17 92 1019.2
20260506190338 5 141 6.4 9.7 0.03 2.03 1.17 92 1019.2
20260506185429 5 161 4.8 11.3 0.03 2.03 1.17 93 1019.3
20260506185321 5 148 6.4 11.3 0.03 2.03 1.17 93 1019.3
20260506184411 5 170 4.8 11.3 0.03 2.03 1.17 92 1019.4
20260506184324 5 149 4.8 11.3 0.03 2.03 1.17 93 1019.4
20260506183436 5 63 1.6 11.3 0.03 2.03 1.17 94 1019.6
20260506183330 5 28 1.6 11.3 0.03 2.03 1.17 93 1019.5
20260506182417 4 126 4.8 8.0 0.05 2.03 1.17 95 1019.6
20260506182312 4 122 4.8 8.0 0.03 2.01 1.14 95 1019.6
20260506181423 4 136 3.2 4.8 0.03 2.01 1.14 94 1019.7
20260506181315 4 155 3.2 4.8 0.03 2.01 1.14 94 1019.7
20260506180439 4 117 1.6 8.0 0.05 2.01 1.14 95 1019.7
20260506180311 3 96 1.6 9.7 0.05 2.01 1.14 94 1019.8
20260506175422 3 118 1.6 11.3 0.08 2.01 1.14 95 1019.7
20260506175316 3 142 1.6 11.3 0.10 2.01 1.14 95 1019.7
20260506174426 3 84 1.6 6.4 0.13 2.01 1.14 96 1019.8
20260506174319 3 160 1.6 6.4 0.13 2.01 1.14 96 1019.7
20260506173416 3 82 1.6 4.8 0.18 2.01 1.14 96 1019.8
20260506173329 3 82 1.6 4.8 0.18 2.01 1.14 96 1019.8
20260506172420 3 279 1.6 8.0 0.20 1.98 1.12 96 1019.8
20260506172313 3 164 3.2 8.0 0.20 1.98 1.12 96 1019.8
20260506171424 2 101 4.8 11.3 0.25 1.98 1.12 97 1019.8
20260506171316 2 130 4.8 11.3 0.25 1.98 1.12 96 1019.8
20260506170427 2 91 3.2 8.0 0.28 1.96 1.09 96 1019.7
20260506170321 2 234 1.6 8.0 0.28 1.96 1.09 96 1019.7
20260506165452 2 147 6.4 11.3 0.30 1.93 1.07 97 1019.7
20260506165326 2 141 6.4 11.3 0.30 1.93 1.04 97 1019.6
20260506164418 2 134 4.8 8.0 0.33 1.91 1.02 97 1019.6
20260506164311 2 140 3.2 8.0 0.33 1.91 1.02 97 1019.5
20260506163423 2 136 6.4 11.3 0.33 1.85 0.97 97 1019.5
20260506163314 2 115 4.8 11.3 0.36 1.85 0.97 97 1019.4
20260506162425 2 74 3.2 6.4 0.33 1.80 0.91 97 1019.4
20260506162314 1 86 3.2 6.4 0.36 1.80 0.91 97 1019.4
20260506161446 1 198 3.2 6.4 0.33 1.75 0.86 97 1019.3
20260506161338 1 20 3.2 6.4 0.33 1.75 0.86 97 1019.3
20260506160409 1 63 3.2 4.8 0.30 1.70 0.81 97 1019.3
20260506160346 1 124 3.2 4.8 0.30 1.70 0.81 97 1019.2
20260506155413 1 46 1.6 4.8 0.23 1.63 0.74 98 1019.1
20260506155325 1 145 1.6 4.8 0.23 1.63 0.74 98 1019.1
20260506154417 1 83 3.2 6.4 0.20 1.57 0.69 98 1018.9
20260506154327 1 82 3.2 6.4 0.20 1.57 0.69 98 1018.9
20260506153417 1 80 3.2 6.4 0.18 1.52 0.64 98 1019.0
20260506153311 1 87 3.2 6.4 0.15 1.50 0.61 98 1019.0
20260506152422 1 82 3.2 4.8 0.15 1.47 0.58 98 1018.9
20260506152315 1 79 1.6 4.8 0.13 1.45 0.56 98 1018.9
20260506151410 1 92 1.6 4.8 0.10 1.42 0.53 98 1018.9
20260506151324 1 92 1.6 4.8 0.10 1.42 0.53 98 1018.9
20260506150413 1 131 0.0 3.2 0.08 1.40 0.51 98 1019.0
20260506150326 1 131 0.0 3.2 0.08 1.40 0.51 98 1018.9
20260506145418 0 170 1.6 3.2 0.10 1.40 0.51 98 1019.0
20260506145326 0 170 1.6 3.2 0.10 1.40 0.51 98 1019.0